Presure
175 181 187 168 174 169 133 180 187 185 182 140 174 200 167 168 201 205 196 178 167 201 169 190 231 214 224 184 222 245 168 209 185 218 205 203 208 210 209 212 169 205 205 199
172 177 178 172 180 177 184 177 176 187 179 190 183 193 178 191 189 201 170 189 205 226 164 223 188 186 209 233 202 213 215 238 245 231 228 215 212 203 206 212 158 201 203 157
170 176 185 157 174 180 172 181 159 184 189 193 195 182 184 187 193 194 199 191 170 170 207 177 163 216 185 199 186 221 215 187 203 174 244 229 175 187 130 221 222 220 219 213
202 208 200 192 180 186 183 175 185 184 190 183 185 161 185 212 189 168 185 167 195 202 176 181 159 220 181 209 216 189 217 178 170 224 178 221 246 242 224 222 221 207 225 230
190 193 201 201 213 217 193 185 180 189 192 190 176 188 190 206 184 179 204 206 198 185 201 207 187 218 193 221 176 170 203 191 195 239 242 248 250 254 248 243 243 249 263 269
177 206 176 197 214 211 218 214 211 210 198 179 157 195 216 220 215 213 212 204 200 208 210 207 191 169 205 207 231 183 218 248 243 241 243 254 207 239 254 262 269 271 287 334
209 210 207 213 177 209 208 203 209 212 214 214 208 215 158 162 197 202 209 188 170 191 206 204 211 180 197 224 215 250 249 236 232 230 240 242 251 237 255 226 260 282 311 316
204 198 202 206 209 187 213 212 213 215 213 196 211 221 213 199 207 208 193 196 204 181 189 217 220 228 227 227 238 247 245 232 239 236 243 237 240 255 261 268 302 275 305 145
203 207 206 216 220 220 207 219 208 207 217 214 220 170 208 208 207 195 211 209 212 219 240 231 214 233 227 219 234 225 168 236 237 238 246 245 248 257 269 292 288 296 300 366
223 223 228 225 224 204 177 234 230 229 229 223 221 224 223 216 220 218 211 215 219 219 228 236 238 225 221 234 221 221 245 242 240 247 245 250 254 262 284 283 284 331 350 304
232 249 238 234 237 234 225 227 226 224 224 229 230 228 227 226 218 216 219 214 217 223 236 240 235 228 235 235 204 235 242 241 245 246 248 235 273 236 281 276 365 275 78 306
224 249 248 242 238 234 231 225 224 225 229 232 237 224 224 222 229 224 221 235 240 238 236 215 233 237 219 237 249 247 242 242 247 243 264 278 269 275 272 335 323 322 302 289
245 244 244 250 227 230 237 239 243 243 228 231 236 233 234 232 226 259 249 247 249 242 216 218 221 231 248 196 177 243 246 247 253 258 273 264 270 261 301 324 311 316 293 285
282 330 387 391 365 316 271 264 275 247 250 284 304 285 271 264 262 253 252 250 241 239 240 237 236 250 243 245 243 244 249 251 259 267 259 263 266 258 313 313 306 322 292 279
339 359 358 360 353 345 350 341 334 325 315 308 294 290 277 274 266 256 247 244 243 241 254 244 247 126 247 244 243 249 254 263 264 256 260 270 220 316 320 302 294 320 291 278
343 335 344 341 323 323 330 328 322 316 302 300 292 288 271 270 266 254 246 246 243 249 246 253 248 245 243 245 245 260 264 261 251 259 252 262 308 331 334 305 295 344 297 279
333 329 320 318 305 304 307 301 305 305 299 294 294 280 277 271 259 255 259 261 252 251 249 243 239 244 248 249 263 257 255 251 259 252 275 315 315 310 316 323 295 354 296 277
310 306 304 301 298 306 305 304 299 294 295 286 287 285 278 271 268 258 255 251 246 243 246 247 247 247 259 252 249 246 254 250 260 283 317 405 400 415 349 317 290 296 315 276
290 286 291 285 284 278 278 297 297 295 279 278 267 267 267 261 262 257 248 251 247 245 243 247 255 251 244 241 247 258 255 272 311 356 420 420 404 392 409 311 291 299 345 283
266 267 277 280 282 279 298 297 292 288 287 294 279 273 266 261 248 244 246 244 241 243 251 246 239 237 242 252 241 260 289 297 379 369 377 377 378 382 389 408 295 314 348 297
288 282 289 289 294 293 290 285 277 282 274 266 258 254 254 251 246 245 241 242 246 237 234 232 239 246 255 253 279 303 379 368 367 364 366 366 368 367 381 358 292 304 323 347
293 289 281 285 288 274 278 278 269 266 257 256 254 254 246 238 238 243 240 235 229 229 236 239 249 256 264 305 388 373 359 351 350 348 348 353 360 369 297 315 311 292 306 346
274 262 284 254 277 278 258 256 263 259 260 256 247 245 246 245 235 233 227 226 233 233 245 251 262 300 391 371 354 336 324 320 312 308 308 313 325 347 293 300 305 277 301 319
267 259 277 274 270 265 268 266 252 248 247 251 243 233 233 229 224 226 227 228 240 244 247 282 362 363 350 329 311 303 296 293 289 290 290 290 293 296 307 321 273 352 273 279
287 274 265 259 260 255 250 249 250 245 234 231 229 229 226 228 226 227 239 235 246 252 285 365 346 328 309 294 287 287 282 279 280 279 279 281 284 285 288 293 294 283 312 278
265 266 251 257 258 248 245 235 233 229 223 222 225 226 230 226 233 235 235 246 257 290 274 320 315 298 284 278 272 276 272 269 272 271 270 270 272 273 272 273 276 277 281 281
Wind_Speed
69 73 82 71 76 79 70 79 84 76 62 62 68 79 76 71 71 72 63 75 77 66 78 72 55 58 53 78 55 53 56 68 62 76 76 78 82 83 84 85 77 80 81 80
75 82 83 76 81 78 81 77 78 84 66 79 67 76 74 65 60 82 78 72 80 78 69 67 82 69 63 56 70 64 65 64 70 71 75 81 84 83 84 86 61 81 80 54
75 84 92 80 87 85 79 87 77 86 87 85 86 67 64 67 76 76 82 84 84 80 75 80 58 68 70 73 80 62 67 68 73 64 78 84 72 70 58 90 92 94 94 88
79 82 88 90 91 94 90 82 93 88 91 74 76 66 70 94 74 78 73 72 79 75 77 85 57 76 85 76 75 84 71 64 60 74 67 77 83 93 94 96 98 92 102 103
80 84 84 90 88 91 101 99 88 101 100 92 71 75 80 94 72 74 92 88 77 83 80 79 86 82 85 81 75 67 81 89 89 78 76 80 82 84 91 98 99 101 105 105
85 89 83 85 87 92 93 97 104 109 104 85 72 96 92 94 95 95 97 88 80 88 87 84 81 75 85 84 90 88 85 80 81 80 77 79 74 84 85 89 91 93 97 81
92 92 92 91 90 91 94 93 100 101 103 99 100 104 58 56 85 97 99 88 76 78 87 87 94 89 92 94 90 86 84 83 83 83 81 80 82 83 87 74 91 92 81 80
93 91 94 95 98 96 98 99 100 103 103 93 100 95 90 87 91 97 92 89 97 90 89 100 98 94 95 93 92 86 85 87 87 87 86 84 84 88 88 91 81 71 78 40
94 92 100 105 106 105 101 103 103 105 103 100 100 75 94 95 98 93 101 98 100 99 92 94 96 95 93 92 90 88 67 89 89 90 89 89 88 88 94 83 78 75 70 42
98 96 102 100 100 90 74 102 101 103 105 107 102 101 99 100 100 102 101 100 100 99 95 93 92 92 93 93 90 92 90 89 89 91 90 89 88 93 83 81 76 57 43 35
99 95 90 96 97 98 101 101 102 105 105 106 104 100 100 101 103 103 105 102 99 99 97 90 90 90 91 90 76 92 89 89 89 88 88 81 90 70 80 74 51 37 28 35
94 96 94 100 99 101 104 101 104 105 105 106 106 95 99 102 105 106 106 104 102 99 92 87 88 90 88 91 87 87 89 88 88 86 89 86 79 79 75 56 49 41 37 39
99 102 99 97 95 100 101 104 107 109 101 100 102 97 103 101 99 99 93 92 91 91 87 89 90 92 87 63 55 85 87 87 87 87 82 76 78 74 66 52 45 40 40 39
98 84 63 58 65 82 106 107 96 105 106 96 88 89 87 86 89 89 90 85 87 88 87 88 89 83 84 83 83 84 84 85 84 78 75 75 71 70 61 50 44 42 41 38
63 57 55 49 46 49 51 52 56 58 64 69 73 75 76 80 81 81 83 82 82 80 77 81 80 36 79 80 82 81 83 80 77 74 74 75 60 69 57 50 45 40 44 41
53 49 46 36 40 45 44 42 46 48 54 60 62 60 66 68 71 72 76 79 76 77 77 72 74 75 76 79 79 81 76 76 73 75 67 72 78 64 56 48 43 42 46 46
40 37 37 32 38 38 32 38 41 44 49 53 49 53 56 60 62 65 66 65 67 68 67 70 72 73 75 76 72 73 74 73 75 69 80 80 69 61 53 45 42 41 47 46
30 31 31 30 32 31 30 32 37 39 40 38 37 39 42 44 45 50 52 54 57 60 63 64 67 70 67 67 70 71 75 70 77 85 81 52 49 43 46 43 41 38 45 46
30 32 32 27 28 23 24 27 30 32 32 32 32 33 33 34 33 37 43 45 50 55 57 60 60 61 64 66 70 75 73 82 84 62 39 35 35 35 33 37 39 35 40 48
25 27 27 27 26 24 21 22 22 23 25 22 22 21 23 25 31 36 39 44 48 51 51 52 57 61 65 71 64 74 81 76 45 43 35 31 29 27 25 27 36 33 33 46
28 28 26 25 21 15 18 17 17 19 18 16 18 19 20 22 27 32 37 42 42 46 51 55 60 64 69 68 77 76 42 37 33 30 27 25 23 20 20 20 31 29 28 37
23 20 17 17 15 17 13 15 17 17 19 19 19 18 18 25 30 32 34 38 44 50 55 58 63 66 71 72 33 28 25 22 21 19 18 17 16 15 16 16 20 24 24 26
17 15 16 18 14 14 18 14 15 13 12 14 18 16 19 21 25 31 37 42 48 51 58 59 66 68 25 21 17 14 14 16 17 18 19 19 19 19 12 13 14 21 19 20
18 16 15 17 16 12 10 13 14 13 12 9 10 15 18 24 30 34 39 45 51 53 54 64 32 19 13 10 11 12 13 14 15 14 15 15 15 14 13 14 16 14 19 16
20 18 15 14 10 9 10 11 12 10 9 12 15 17 21 27 33 38 44 47 51 55 57 22 16 11 10 12 14 13 15 14 13 12 12 13 12 11 10 10 8 11 9 14
16 14 15 13 9 9 12 10 10 12 16 17 15 20 26 31 37 39 44 49 53 50 45 23 14 12 13 15 16 13 15 16 14 13 13 13 13 13 12 12 11 10 8 8
Wind_Direction
272 270 274 267 272 271 275 279 280 278 267 280 259 292 265 266 295 293 277 273 275 290 280 276 296 287 287 283 277 285 272 275 281 268 273 273 272 272 273 270 267 268 266 267
272 274 276 271 280 279 278 279 278 280 270 283 278 286 269 282 278 285 267 275 289 296 279 298 278 286 289 291 276 284 278 288 287 276 272 270 271 275 275 271 262 270 269 264
272 266 267 274 270 276 274 278 277 279 281 280 282 276 278 282 283 282 283 282 271 276 284 277 282 299 279 286 282 286 284 279 278 279 280 277 276 269 267 272 271 270 269 266
268 265 262 268 274 271 273 273 276 277 278 275 275 265 281 284 278 267 273 279 282 284 278 275 277 298 279 286 290 279 287 282 275 280 278 276 275 273 272 273 272 273 271 272
270 270 265 264 265 265 265 270 274 275 274 275 269 276 280 283 278 269 287 285 278 272 285 292 276 296 272 293 284 281 277 281 280 288 287 282 279 278 272 269 269 269 270 272
270 273 267 268 269 267 268 268 268 268 271 269 269 276 278 281 284 287 291 283 281 290 293 292 275 278 287 285 293 279 291 289 288 287 287 284 279 279 282 283 283 281 280 280
275 277 274 276 268 269 269 269 268 269 271 272 273 275 274 277 277 284 286 276 275 274 289 286 293 276 283 293 290 293 288 290 288 289 288 286 285 282 284 283 282 284 287 284
273 271 272 273 273 269 270 269 270 270 270 271 275 276 277 276 278 280 277 280 285 273 276 290 291 289 291 292 294 292 290 290 289 289 288 288 288 290 288 290 293 291 289 267
270 271 272 273 271 269 268 269 268 270 271 272 273 274 275 277 276 276 279 281 283 285 286 285 288 286 288 290 291 290 286 289 289 289 288 289 290 293 297 297 296 292 290 270
270 268 270 268 268 268 268 270 271 273 274 272 274 275 275 274 275 275 277 280 282 283 285 283 283 285 287 289 288 289 289 290 289 289 290 293 294 299 298 297 295 287 275 264
273 271 270 269 268 263 265 266 268 270 271 273 273 273 274 274 275 277 279 281 282 283 284 285 286 285 287 287 286 288 288 287 288 291 293 294 298 294 298 297 290 269 268 261
270 267 264 264 261 262 262 264 266 267 269 270 271 272 272 272 274 275 276 278 279 282 281 284 286 286 285 288 284 286 287 289 292 293 297 298 300 300 299 296 290 268 265 265
267 265 263 263 262 263 263 264 265 267 270 271 271 271 270 270 272 268 271 274 274 277 280 282 284 287 286 282 283 287 289 291 293 296 297 299 299 298 299 294 286 259 262 265
273 273 272 269 263 261 261 262 264 266 268 267 263 262 261 263 262 265 269 273 273 277 279 281 283 285 285 286 287 289 292 293 295 296 297 298 297 297 299 292 285 256 256 261
278 274 270 267 265 261 257 255 257 258 260 261 260 259 261 263 264 265 268 271 273 277 281 281 283 272 286 287 289 291 294 294 294 295 297 299 295 300 294 287 282 253 248 254
275 276 273 265 259 258 259 259 257 254 254 256 259 263 264 266 266 266 267 270 276 280 282 284 285 286 288 290 291 292 292 293 295 297 297 298 300 295 289 282 277 256 242 250
278 276 270 259 257 258 258 252 249 247 246 254 261 260 262 264 267 269 271 275 277 280 282 283 286 289 289 291 290 291 293 296 298 298 299 300 296 291 287 279 271 267 243 250
277 269 262 259 259 260 256 255 254 251 253 255 253 252 256 260 262 266 271 274 277 280 282 286 286 286 288 289 292 294 297 299 300 301 301 300 297 296 281 275 268 263 241 248
263 263 261 261 263 263 262 261 261 255 253 249 252 250 250 256 260 267 272 277 277 282 283 283 286 286 289 293 296 298 301 301 302 304 307 306 301 295 287 266 265 259 253 241
259 267 265 261 259 255 244 247 249 253 245 235 233 240 244 252 265 271 273 275 279 281 283 285 287 291 294 296 301 302 302 302 309 309 309 308 305 300 290 273 262 256 264 235
252 252 254 260 258 240 240 234 237 224 226 229 241 251 254 258 269 273 272 275 279 282 286 289 292 295 298 301 301 302 308 311 316 319 320 317 312 305 297 271 266 257 267 253
242 244 258 253 218 221 213 203 222 225 232 244 250 244 250 259 262 269 274 278 282 286 290 294 297 300 302 302 310 314 321 330 341 350 350 345 336 327 277 269 271 263 275 270
244 246 233 245 221 213 229 218 232 242 246 238 233 250 256 263 267 274 277 284 288 291 294 300 303 302 313 316 325 339 349 8 18 19 28 33 31 25 295 290 281 270 280 279
237 237 204 195 206 206 206 201 206 206 223 238 236 249 263 269 274 283 287 288 292 297 305 303 310 315 322 332 338 345 348 358 359 10 17 24 30 26 26 26 285 21 285 291
205 208 201 208 200 210 206 199 198 187 209 236 252 269 277 284 284 287 291 294 300 306 306 314 313 314 318 322 327 335 339 343 345 356 7 16 25 28 26 29 15 314 4 287
185 182 205 204 201 195 165 180 200 213 237 257 280 286 284 286 290 292 296 301 306 311 310 311 304 307 315 318 321 330 331 328 332 344 350 354 356 359 358 359 3 356 352 327